SHT8V EGLL-EGPH

Flight info

Callsign SHT8V
Flight time N/A
Altitude 32000
Route ULTIB T420 TNT UN57 POL UN601 RIBEL DCT INPIP
Aircraft A319/M-SDE3FGHIRWY/LB1

Departure

Time N/A
Airport London Heathrow Airport (EGLL)

Arrival

Time 2026-04-24 19:02
Airport Edinburgh Airport (EGPH)
Time Latitude Longitude Altitude Speed Heading
2026-04-24 18:54 55.70023 -3.52113 8302 ft 271 kts 329°
2026-04-24 18:55 55.73262 -3.55441 7598 ft 269 kts 329°
2026-04-24 18:55 55.74871 -3.57090 7347 ft 260 kts 329°
2026-04-24 18:55 55.76386 -3.58635 7206 ft 243 kts 329°
2026-04-24 18:56 55.77632 -3.60530 6907 ft 235 kts 303°
2026-04-24 18:56 55.78185 -3.63229 6634 ft 234 kts 282°
2026-04-24 18:56 55.78464 -3.66080 6315 ft 234 kts 279°
2026-04-24 18:56 55.78734 -3.68927 5997 ft 233 kts 285°
2026-04-24 18:57 55.79523 -3.71383 5673 ft 230 kts 317°
2026-04-24 18:57 55.80937 -3.72632 5358 ft 230 kts 351°
2026-04-24 18:57 55.82515 -3.72274 4924 ft 236 kts 24°
2026-04-24 18:57 55.83765 -3.70271 4284 ft 251 kts 55°
2026-04-24 18:58 55.84676 -3.67596 3842 ft 252 kts 59°
2026-04-24 18:58 55.85547 -3.64952 3501 ft 243 kts 58°
2026-04-24 18:58 55.86395 -3.62464 3186 ft 232 kts 58°
2026-04-24 18:58 55.87216 -3.60073 2882 ft 221 kts 58°
2026-04-24 18:59 55.88003 -3.57778 2591 ft 211 kts 58°
2026-04-24 18:59 55.88746 -3.55604 2348 ft 199 kts 58°
2026-04-24 18:59 55.89452 -3.53540 2063 ft 191 kts 58°
2026-04-24 18:59 55.90110 -3.51613 1814 ft 169 kts 58°
2026-04-24 19:00 55.90684 -3.49931 1577 ft 149 kts 58°
2026-04-24 19:00 55.91203 -3.48412 1371 ft 139 kts 58°
2026-04-24 19:00 55.91699 -3.46959 1188 ft 135 kts 58°
2026-04-24 19:00 55.92178 -3.45556 1019 ft 132 kts 58°
2026-04-24 19:01 55.92651 -3.44166 841 ft 129 kts 58°
2026-04-24 19:01 55.93113 -3.42805 669 ft 127 kts 58°
2026-04-24 19:01 55.93571 -3.41462 503 ft 125 kts 58°
2026-04-24 19:01 55.94022 -3.40137 331 ft 124 kts 58°
2026-04-24 19:02 55.94319 -3.39264 229 ft 124 kts 58°
2026-04-24 19:02 55.94895 -3.37562 113 ft 108 kts 59°
2026-04-24 19:02 55.95192 -3.36677 113 ft 48 kts 60°
2026-04-24 19:02 55.95257 -3.36479 111 ft 10 kts 68°
2026-04-24 19:03 55.95216 -3.36376 114 ft 11 kts 149°
2026-04-24 19:03 55.95154 -3.36311 115 ft 9 kts 149°
2026-04-24 19:03 55.95118 -3.36326 113 ft 8 kts 232°
2026-04-24 19:03 55.95066 -3.36399 116 ft 9 kts 159°
2026-04-24 19:04 55.95014 -3.36398 113 ft 8 kts 217°
2026-04-24 19:04 55.94981 -3.36495 116 ft 11 kts 239°
2026-04-24 19:04 55.94954 -3.36575 116 ft 8 kts 239°
2026-04-24 19:04 55.94914 -3.36584 114 ft 8 kts 153°
2026-04-24 19:05 55.94882 -3.36550 113 ft 2 kts 149°
2026-04-24 19:05 55.94881 -3.36548 113 ft 0 kts 149°